| time (UTC) | temp F | wind direction | speed MPH | gust MPH | rain 1hr in | rain 24hr in | rain mn in | humidity % | barometer mb |
| 20260507151552 | 88 | 146 | 0.0 | 5.0 | 0.00 | 0.02 | 0.01 | 64 | 1015.8 |
| 20260507150051 | 88 | 98 | 0.0 | 9.0 | 0.00 | 0.02 | 0.01 | 66 | 1016.0 |
| 20260507144549 | 87 | 92 | 0.0 | 0.0 | 0.00 | 0.02 | 0.01 | 67 | 1016.0 |
| 20260507143104 | 85 | 102 | 0.0 | 8.0 | 0.00 | 0.02 | 0.01 | 71 | 1016.2 |
| 20260507141603 | 85 | 129 | 0.0 | 4.0 | 0.00 | 0.02 | 0.01 | 73 | 1016.3 |
| 20260507140043 | 85 | 105 | 0.0 | 0.0 | 0.00 | 0.02 | 0.01 | 74 | 1016.3 |
| 20260507134541 | 83 | 151 | 0.0 | 0.0 | 0.00 | 0.02 | 0.01 | 77 | 1016.4 |
| 20260507133042 | 83 | 141 | 0.0 | 0.0 | 0.00 | 0.02 | 0.01 | 77 | 1016.1 |
| 20260507131549 | 83 | 127 | 0.0 | 0.0 | 0.00 | 0.02 | 0.01 | 78 | 1016.1 |
| 20260507130042 | 83 | 123 | 0.0 | 0.0 | 0.00 | 0.02 | 0.01 | 79 | 1016.1 |
| 20260507124538 | 81 | 158 | 0.0 | 6.0 | 0.00 | 0.02 | 0.01 | 81 | 1016.1 |
| 20260507123042 | 82 | 226 | 0.0 | 0.0 | 0.00 | 0.02 | 0.01 | 81 | 1016.0 |
| 20260507121540 | 82 | 125 | 0.0 | 0.0 | 0.00 | 0.02 | 0.01 | 80 | 1015.7 |
| 20260507120034 | 82 | 106 | 0.0 | 4.0 | 0.00 | 0.02 | 0.01 | 81 | 1015.5 |
| 20260507114532 | 81 | 88 | 0.0 | 0.0 | 0.00 | 0.02 | 0.01 | 81 | 1015.5 |
| 20260507113031 | 82 | 70 | 0.0 | 0.0 | 0.00 | 0.02 | 0.01 | 81 | 1015.3 |
| 20260507111526 | 80 | 37 | 0.0 | 0.0 | 0.00 | 0.02 | 0.01 | 80 | 1015.3 |
| 20260507110026 | 78 | 94 | 0.0 | 0.0 | 0.00 | 0.02 | 0.01 | 77 | 1015.2 |
| 20260507104524 | 77 | 212 | 0.0 | 0.0 | 0.00 | 0.02 | 0.01 | 76 | 1015.2 |
| 20260507103020 | 77 | 207 | 0.0 | 0.0 | 0.00 | 0.02 | 0.01 | 72 | 1015.1 |
| 20260507101519 | 76 | 207 | 0.0 | 0.0 | 0.00 | 0.02 | 0.01 | 70 | 1015.0 |
| 20260507100018 | 76 | 207 | 0.0 | 0.0 | 0.00 | 0.02 | 0.01 | 69 | 1014.8 |
| 20260507094517 | 76 | 150 | 0.0 | 0.0 | 0.00 | 0.02 | 0.01 | 68 | 1014.9 |
| 20260507093017 | 76 | 162 | 0.0 | 0.0 | 0.00 | 0.02 | 0.01 | 69 | 1014.8 |
| 20260507091519 | 76 | 207 | 0.0 | 0.0 | 0.00 | 0.02 | 0.01 | 68 | 1014.8 |
| 20260507090014 | 76 | 207 | 0.0 | 0.0 | 0.00 | 0.02 | 0.01 | 68 | 1014.8 |
| 20260507084509 | 76 | 207 | 0.0 | 0.0 | 0.00 | 0.02 | 0.01 | 66 | 1014.8 |
| 20260507083007 | 76 | 207 | 0.0 | 0.0 | 0.00 | 0.02 | 0.01 | 66 | 1014.9 |
| 20260507081505 | 76 | 207 | 0.0 | 0.0 | 0.00 | 0.02 | 0.01 | 65 | 1014.7 |
| 20260507080005 | 76 | 203 | 0.0 | 0.0 | 0.00 | 0.02 | 0.01 | 66 | 1014.7 |
| 20260507074505 | 77 | 203 | 0.0 | 0.0 | 0.00 | 0.02 | 0.01 | 66 | 1014.7 |
| 20260507073006 | 77 | 203 | 0.0 | 0.0 | 0.00 | 0.02 | 0.01 | 69 | 1014.8 |
| 20260507071502 | 77 | 196 | 0.0 | 0.0 | 0.00 | 0.02 | 0.01 | 65 | 1014.8 |
| 20260507070000 | 76 | 196 | 0.0 | 0.0 | 0.00 | 0.02 | 0.01 | 64 | 1014.9 |
| 20260507064634 | 76 | 196 | 0.0 | 0.0 | 0.00 | 0.02 | 0.01 | 62 | 1015.1 |
| 20260507063115 | 76 | 196 | 0.0 | 0.0 | 0.00 | 0.02 | 0.01 | 64 | 1015.3 |
| 20260507061554 | 76 | 196 | 0.0 | 0.0 | 0.00 | 0.02 | 0.01 | 63 | 1015.4 |
| 20260507060110 | 76 | 196 | 0.0 | 0.0 | 0.00 | 0.02 | 0.01 | 64 | 1015.6 |
| 20260507054554 | 76 | 212 | 0.0 | 0.0 | 0.00 | 0.02 | 0.01 | 64 | 1015.7 |
| 20260507053048 | 76 | 225 | 0.0 | 0.0 | 0.01 | 0.02 | 0.01 | 61 | 1016.0 |
| 20260507051600 | 76 | 169 | 0.0 | 0.0 | 0.01 | 0.02 | 0.01 | 50 | 1016.2 |
| 20260507050047 | 76 | 160 | 0.0 | 0.0 | 0.01 | 0.02 | 0.01 | 49 | 1016.5 |
| 20260507044539 | 77 | 184 | 0.0 | 0.0 | 0.01 | 0.02 | 0.01 | 74 | 1016.7 |
| 20260507043136 | 77 | 207 | 0.0 | 0.0 | 0.01 | 0.01 | 0.00 | 76 | 1016.9 |
| 20260507041533 | 76 | 207 | 0.0 | 0.0 | 0.01 | 0.01 | 0.00 | 76 | 1017.1 |
| 20260507040031 | 77 | 203 | 0.0 | 0.0 | 0.01 | 0.01 | 0.01 | 78 | 1017.1 |
| 20260507034531 | 77 | 203 | 0.0 | 0.0 | 0.01 | 0.01 | 0.01 | 79 | 1017.2 |
| 20260507033030 | 78 | 229 | 0.0 | 0.0 | 0.00 | 0.00 | 0.00 | 80 | 1017.2 |
| 20260507031528 | 77 | 206 | 0.0 | 0.0 | 0.00 | 0.00 | 0.00 | 79 | 1017.2 |
| 20260507030030 | 78 | 206 | 0.0 | 0.0 | 0.00 | 0.00 | 0.00 | 80 | 1017.3 |
| 20260507024529 | 77 | 206 | 0.0 | 0.0 | 0.00 | 0.00 | 0.00 | 81 | 1017.3 |
| 20260507023027 | 77 | 153 | 0.0 | 0.0 | 0.00 | 0.00 | 0.00 | 81 | 1017.3 |
| 20260507021526 | 77 | 172 | 0.0 | 0.0 | 0.00 | 0.00 | 0.00 | 81 | 1017.2 |
| 20260507020026 | 77 | 181 | 0.0 | 0.0 | 0.00 | 0.00 | 0.00 | 82 | 1017.1 |
| 20260507014526 | 77 | 203 | 0.0 | 0.0 | 0.00 | 0.00 | 0.00 | 82 | 1017.0 |
| 20260507013025 | 78 | 234 | 0.0 | 1.0 | 0.00 | 0.00 | 0.00 | 82 | 1016.9 |
| 20260507011525 | 79 | 134 | 0.0 | 0.0 | 0.00 | 0.00 | 0.00 | 81 | 1016.7 |
| 20260507010030 | 80 | 233 | 0.0 | 0.0 | 0.00 | 0.00 | 0.00 | 81 | 1016.6 |
| 20260507004523 | 80 | 212 | 0.0 | 0.0 | 0.00 | 0.00 | 0.00 | 81 | 1016.6 |
| 20260507003023 | 80 | 106 | 0.0 | 0.0 | 0.00 | 0.00 | 0.00 | 81 | 1016.4 |
| 20260507001522 | 80 | 226 | 0.0 | 0.0 | 0.00 | 0.00 | 0.00 | 80 | 1016.2 |
| 20260507000022 | 80 | 241 | 0.0 | 0.0 | 0.00 | 0.00 | 0.00 | 80 | 1016.0 |
| 20260506234521 | 81 | 106 | 0.0 | 0.0 | 0.00 | 0.00 | 0.00 | 79 | 1015.9 |
| 20260506233023 | 81 | 167 | 0.0 | 0.0 | 0.00 | 0.00 | 0.00 | 78 | 1015.6 |
| 20260506231520 | 81 | 186 | 0.0 | 0.0 | 0.00 | 0.00 | 0.00 | 78 | 1015.5 |
| 20260506230025 | 82 | 195 | 0.0 | 0.0 | 0.00 | 0.00 | 0.00 | 76 | 1015.3 |
| 20260506224519 | 83 | 143 | 0.0 | 0.0 | 0.00 | 0.00 | 0.00 | 75 | 1015.0 |
| 20260506223019 | 83 | 136 | 0.0 | 2.0 | 0.00 | 0.00 | 0.00 | 73 | 1014.8 |
| 20260506221517 | 84 | 114 | 0.0 | 0.0 | 0.00 | 0.00 | 0.00 | 71 | 1014.5 |
| 20260506220018 | 85 | 176 | 0.0 | 6.0 | 0.00 | 0.00 | 0.00 | 70 | 1014.4 |
| 20260506214517 | 86 | 143 | 0.0 | 0.0 | 0.00 | 0.00 | 0.00 | 66 | 1014.2 |
| 20260506213016 | 86 | 136 | 0.0 | 11.0 | 0.00 | 0.00 | 0.00 | 67 | 1014.1 |
| 20260506211514 | 88 | 122 | 0.0 | 0.0 | 0.00 | 0.00 | 0.00 | 65 | 1014.0 |
| 20260506210012 | 88 | 188 | 0.0 | 8.0 | 0.00 | 0.00 | 0.00 | 65 | 1014.0 |
| 20260506204510 | 87 | 125 | 0.0 | 8.0 | 0.00 | 0.00 | 0.00 | 63 | 1013.9 |
| 20260506203008 | 88 | 152 | 4.0 | 10.0 | 0.00 | 0.00 | 0.00 | 62 | 1013.8 |
| 20260506201516 | 88 | 96 | 0.0 | 5.0 | 0.00 | 0.00 | 0.00 | 63 | 1013.7 |
| 20260506200001 | 89 | 102 | 1.0 | 9.0 | 0.00 | 0.00 | 0.00 | 62 | 1013.9 |
| 20260506193056 | 89 | 96 | 0.0 | 9.0 | 0.00 | 0.00 | 0.00 | 60 | 1014.1 |
| 20260506191552 | 89 | 110 | 0.0 | 1.0 | 0.00 | 0.00 | 0.00 | 60 | 1014.3 |
| 20260506190048 | 90 | 166 | 0.0 | 16.0 | 0.00 | 0.00 | 0.00 | 59 | 1014.4 |
| 20260506184553 | 89 | 113 | 0.0 | 8.0 | 0.00 | 0.00 | 0.00 | 62 | 1014.5 |
| 20260506183040 | 90 | 145 | 0.0 | 11.0 | 0.00 | 0.00 | 0.00 | 60 | 1014.6 |
| 20260506181539 | 90 | 100 | 0.0 | 3.0 | 0.00 | 0.00 | 0.00 | 59 | 1014.8 |
| 20260506180039 | 90 | 105 | 0.0 | 8.0 | 0.00 | 0.00 | 0.00 | 59 | 1015.0 |
| 20260506174536 | 90 | 125 | 0.0 | 8.0 | 0.00 | 0.00 | 0.00 | 56 | 1015.4 |
| 20260506173031 | 90 | 136 | 1.0 | 13.0 | 0.00 | 0.00 | 0.00 | 58 | 1015.7 |
| 20260506171539 | 89 | 91 | 0.0 | 0.0 | 0.00 | 0.00 | 0.00 | 60 | 1016.0 |
| 20260506170029 | 89 | 99 | 0.0 | 8.0 | 0.00 | 0.00 | 0.00 | 60 | 1016.2 |
| 20260506164528 | 89 | 82 | 0.0 | 14.0 | 0.00 | 0.00 | 0.00 | 60 | 1016.4 |
| 20260506163027 | 89 | 100 | 0.0 | 8.0 | 0.00 | 0.00 | 0.00 | 59 | 1016.6 |
| 20260506161525 | 89 | 86 | 0.0 | 9.0 | 0.00 | 0.00 | 0.00 | 61 | 1016.8 |
| 20260506160024 | 88 | 92 | 0.0 | 0.0 | 0.00 | 0.00 | 0.00 | 63 | 1016.9 |
| 20260506154522 | 88 | 129 | 0.0 | 0.0 | 0.00 | 0.00 | 0.00 | 63 | 1017.1 |
| 20260506153020 | 87 | 134 | 0.0 | 0.0 | 0.00 | 0.00 | 0.00 | 67 | 1017.2 |